FW5669 Weather Reports


time (UTC)temp
C
wind
direction
speed
KPH
gust
KPH
rain 1hr
cm
rain 24hr
cm
rain mn
cm
humidity
%
barometer
mb
20260505034618 9 74 0.0 0.0 0.79 2.62 2.62 95 1017.4
20260505033107 9 81 0.0 0.0 0.66 2.36 2.36 95 1017.7
20260505031600 9 81 0.0 0.0 0.69 2.24 2.24 94 1017.6
20260505024600 9 29 1.6 4.8 0.41 1.83 1.83 94 1018.0
20260505023103 9 35 0.0 4.8 0.36 1.70 1.70 94 1017.4
20260505021600 9 39 1.6 4.8 0.23 1.55 1.55 94 1017.1
20260505021502 9 59 0.0 4.8 0.23 1.55 1.55 94 1017.1
20260505020002 10 66 1.6 6.4 0.25 1.50 1.50 94 1016.2
20260505014601 10 52 1.6 6.4 0.20 1.42 1.42 94 1016.2
20260505013001 10 48 0.0 4.8 0.25 1.35 1.35 94 1016.8
20260505011612 10 50 1.6 6.4 0.33 1.32 1.32 94 1016.8
20260505010008 10 104 0.0 3.2 0.30 1.24 1.24 93 1016.6
20260505004501 10 352 1.6 4.8 0.28 1.19 1.19 94 1016.6
20260505003101 10 75 0.0 4.8 0.20 1.09 1.09 94 1016.9
20260505001502 10 56 1.6 3.2 0.15 0.99 0.99 94 1017.3
20260505000110 10 58 0.0 6.4 0.25 0.94 0.94 93 1016.8
20260505000002 10 89 0.0 6.4 0.25 0.94 0.94 93 1016.7
20260504234501 10 46 1.6 9.7 0.25 0.91 0.91 94 1017.2
20260504233113 10 35 0.0 4.8 0.33 0.89 0.89 93 1017.0
20260504233002 10 66 0.0 4.8 0.36 0.89 0.89 93 1016.9
20260504231501 10 196 0.0 3.2 0.36 0.81 0.81 93 1016.5
20260504230002 10 44 1.6 6.4 0.30 0.69 0.69 92 1017.7
20260504224600 10 79 0.0 1.6 0.30 0.66 0.66 93 1017.0
20260504223100 10 133 0.0 0.0 0.28 0.56 0.56 92 1017.1
20260504221559 10 115 0.0 1.6 0.28 0.46 0.46 92 1017.4
20260504214608 10 125 0.0 3.2 0.25 0.36 0.36 91 1017.3
20260504213100 11 72 0.0 1.6 0.20 0.28 0.28 91 1017.3
20260504211600 11 60 0.0 4.8 0.15 0.18 0.18 91 1017.7
20260504210100 11 168 0.0 1.6 0.10 0.13 0.13 89 1017.5
20260504204617 11 163 0.0 1.6 0.10 0.10 0.10 89 1017.4
20260504203105 11 31 0.0 1.6 0.08 0.08 0.08 86 1017.3
20260504201600 11 25 0.0 3.2 0.03 0.03 0.03 84 1017.2
20260504200104 11 37 0.0 3.2 0.03 0.03 0.03 84 1017.3
20260504200002 11 37 0.0 3.2 0.03 0.03 0.03 83 1017.3
20260504194501 11 32 0.0 3.2 0.00 0.00 0.00 80 1017.2
20260504193002 11 10 0.0 1.6 0.00 0.00 0.00 80 1017.3
20260504191501 11 48 0.0 1.6 0.00 0.00 0.00 81 1017.7
20260504190002 12 114 0.0 3.2 0.00 0.00 0.00 81 1017.7
20260504184559 12 188 0.0 4.8 0.00 0.00 0.00 83 1017.5
20260504183100 12 102 1.6 4.8 0.00 0.00 0.00 81 1017.4
20260504181603 12 166 1.6 4.8 0.00 0.00 0.00 78 1017.3
20260504180100 12 121 0.0 6.4 0.00 0.00 0.00 75 1017.2
20260504174600 12 126 0.0 4.8 0.00 0.00 0.00 76 1017.1
20260504173103 12 41 0.0 4.8 0.00 0.00 0.00 76 1017.1
20260504171559 12 19 0.0 4.8 0.00 0.00 0.00 77 1016.9
20260504160117 11 73 1.6 6.4 0.00 0.00 0.00 79 1016.8
20260504120106 10 6 0.0 3.2 0.00 0.00 0.00 86 1015.8
20260504100104 10 40 0.0 0.0 0.00 0.00 0.00 86 1015.7
20260504090123 10 33 0.0 1.6 0.00 0.00 0.00 85 1015.7
20260504081600 10 38 0.0 1.6 0.00 0.00 0.00 84 1015.9
20260504050002 13 177 0.0 0.0 0.00 0.00 0.00 74 1015.3
20260504044501 13 113 0.0 1.6 0.00 0.00 0.00 73 1015.3
20260504043004 13 147 0.0 1.6 0.00 0.00 0.00 73 1015.2
20260504041500 13 168 0.0 3.2 0.00 0.00 0.00 73 1015.1